032  
ASUS44 KLIX 202312  
RWRLA  
LOUISIANA WEATHER ROUNDUP  
NATIONAL WEATHER SERVICE NEW ORLEANS LA  
500 PM CST TUE FEB 20 2018  
 
NOTE: "FAIR" INDICATES FEW OR NO CLOUDS BELOW 12,000 FEET WITH NO  
SIGNIFICANT WEATHER AND/OR S TO VISIBILITY
.  
SKY/WX - SKY CONDITION AND SIGNIFICANT WEATHER.  
TMP - AIR TEMPERATURE. DP - DEWPOINT TEMPERATURE.  
RH - RELATIVE HUMIDITY. PRES - PRESSURE.  
HX - HEAT INDEX. WCI - WIND CHILL INDEX.  
 
* THESE STATIONS ARE NOT NWS OR FAA STATIONS AND ARE NOT UNDER  
NWS QUALITY CONTROL.  
 
LAZ040-048-061>063-065-066-069-210000-  
SOUTHEAST LOUISIANA  
 
CITY SKY/WX TMP DP RH WIND PRES REMARKS
 
N.O. INTL ARPT FAIR 79 70 74 S16 30.13R  
N.O. LAKEFRONT PTSUNNY 80 68 66 S16 30.14R  
N.O. DOWNTOWN* FAIR 80 69 69 S9G22 30.15  
RESERVE* FAIR 82 65 56 S15G22 30.12R  
SLIDELL CLOUDY 76 70 82 SE13G18 30.14S  
BATON ROUGE FAIR 82 62 50 S17 30.08S  
BOOTHVILLE NOT AVBL  
BELLE CHASSE FAIR 77 71 82 S13 30.14R  
BOGALUSA* MOCLDY 79 68 69 S12G21 30.15R  
GALLIANO* MOCLDY 78 68 71 SE8G18 30.13S  
NEW ROADS* MOCLDY 82 63 52 S12G17 30.08S  
GONZALES* NOT AVBL  
HAMMOND* FAIR 79 68 69 SE12G22 30.12R  
HOUMA* PTSUNNY 79 72 78 SE12 30.12S  
PORT FOURCHON* CLEAR 77 72 83 SE12 30.14R  
 

 
 
LAZ041-044-053-054-210000-  
SOUTHWEST LOUISIANA  
 
CITY SKY/WX TMP DP RH WIND PRES REMARKS
 
LAKE CHARLES CLOUDY 76 70 82 S15G28 30.05R  
LAFAYETTE PTSUNNY 78 68 71 S16G25 30.08R  
PATTERSON PTSUNNY 80 69 69 SE17G23 30.10S  
SALT POINT N/A 75 68 78 SE10G20 30.08S  
NEW IBERIA PTSUNNY 78 67 68 S17G28 30.09R  
CHENAULT AIRPK CLOUDY 77 70 78 S17G24 30.05S  
 

 
 
LAZ027-028-210000-  
CENTRAL LOUISIANA  
 
CITY SKY/WX TMP DP RH WIND PRES REMARKS
 
FORT POLK PTSUNNY 77 68 72 S18G25 30.01S  
ALEXANDRIA INT FAIR 78 67 68 S16 30.01S  
ALEXANDRIA FAIR 80 67 64 S16G24 30.04R  
 

 
 
LAZ001-002-210000-  
NORTHWEST LOUISIANA  
 
CITY SKY/WX TMP DP RH WIND PRES REMARKS
 
SHREVEPORT LGT RAIN 74 68 81 S18G29 29.96R  
BARKSDALE AFB FAIR 73 68 83 S13 29.97R  
DTN SHREVEPORT CLOUDY 77 65 66 S18G36 29.97R  
 

 
 
LAZ014-016-210000-  
NORTHEAST LOUISIANA  
 
CITY SKY/WX TMP DP RH WIND PRES REMARKS
 
MONROE CLOUDY 81 64 56 S14G23 30.01R  
TALLULAH FAIR 80 65 59 S12 30.04F  
 

 
 
 
 
CLICK HERE TO GO TO PREVIOUS BULLETINS.

The Nexlab LA Page Main Text Page